When you browse on this site, cookies collect data to enhance your experience and personalize the content and advertising you see.
Visit our Privacy Policy to learn more. By continuing to use the site, you agree to this use of cookies and data.
  • In Portugal
  • List of Countries
  • For 7 days
  • Water Temperature
  • Weather Map
  • Weather Widgets
  • user-avatar
    Login

    Hourly Weather Juwaja

    Today, 7 June, Sunday

    Time Temperature Precipitation Wind Pressure Humidity
    00:00 +24°C° 0 mm 1 mps 734 mmHg 58%
    01:00 +24°C° 0 mm 1 mps 733 mmHg 60%
    02:00 +24°C° 0 mm 1 mps 733 mmHg 61%
    03:00 +23°C° 0 mm 1 mps 733 mmHg 64%
    04:00 +23°C° 0 mm 1 mps 733 mmHg 66%
    05:00 +21°C° 0 mm 0 mps 733 mmHg 69%
    06:00 +25°C° 0 mm 1 mps 733 mmHg 61%
    07:00 +27°C° 0 mm 1 mps 733 mmHg 53%
    08:00 +29°C° 0 mm 1 mps 734 mmHg 45%
    09:00 +30°C° 0 mm 1 mps 734 mmHg 43%
    10:00 +31°C° 0 mm 2 mps 734 mmHg 42%
    11:00 +33°C° 0 mm 3 mps 734 mmHg 40%
    12:00 +33°C° 0 mm 3 mps 734 mmHg 41%
    13:00 +31°C° 0 mm 3 mps 733 mmHg 41%
    14:00 +32°C° 0 mm 4 mps 733 mmHg 41%
    15:00 +30°C° 0 mm 3 mps 733 mmHg 43%
    16:00 +30°C° 0 mm 3 mps 733 mmHg 44%
    17:00 +29°C° 0 mm 3 mps 732 mmHg 45%
    18:00 +27°C° 0 mm 3 mps 732 mmHg 50%
    19:00 +26°C° 0 mm 2 mps 732 mmHg 55%
    20:00 +24°C° 0 mm 2 mps 732 mmHg 60%
    21:00 +24°C° 0 mm 2 mps 732 mmHg 60%
    22:00 +24°C° 0 mm 2 mps 732 mmHg 60%
    23:00 +24°C° 0 mm 2 mps 732 mmHg 60%

    Tomorrow, 8 June, Monday

    Time Temperature Precipitation Wind Pressure Humidity
    00:00 +23°C° 0 mm 2 mps 732 mmHg 61%
    01:00 +23°C° 0 mm 1 mps 732 mmHg 63%
    02:00 +22°C° 0 mm 1 mps 731 mmHg 65%
    03:00 +22°C° 0 mm 1 mps 731 mmHg 65%
    04:00 +22°C° 0 mm 1 mps 731 mmHg 65%
    05:00 +22°C° 0 mm 1 mps 732 mmHg 66%
    06:00 +24°C° 0 mm 1 mps 732 mmHg 59%
    07:00 +26°C° 0 mm 2 mps 732 mmHg 52%
    08:00 +27°C° 0 mm 2 mps 732 mmHg 45%
    09:00 +28°C° 0 mm 3 mps 732 mmHg 43%
    10:00 +29°C° 0 mm 3 mps 733 mmHg 41%
    11:00 +30°C° 0 mm 4 mps 733 mmHg 39%
    12:00 +30°C° 0 mm 4 mps 733 mmHg 39%
    13:00 +30°C° 0 mm 4 mps 733 mmHg 39%
    14:00 +30°C° 0 mm 4 mps 732 mmHg 39%
    15:00 +29°C° 0 mm 3 mps 732 mmHg 38%
    16:00 +29°C° 0 mm 3 mps 732 mmHg 37%
    17:00 +28°C° 0 mm 2 mps 732 mmHg 36%
    18:00 +27°C° 0 mm 2 mps 732 mmHg 42%
    19:00 +25°C° 0 mm 1 mps 732 mmHg 49%
    20:00 +23°C° 0 mm 1 mps 732 mmHg 56%
    21:00 +23°C° 0 mm 1 mps 732 mmHg 58%
    22:00 +22°C° 0 mm 1 mps 732 mmHg 60%
    23:00 +22°C° 0 mm 1 mps 732 mmHg 62%

    Day after tomorrow, 9 June, Tuesday

    Time Temperature Precipitation Wind Pressure Humidity
    00:00 +21°C° 0 mm 1 mps 732 mmHg 68%
    01:00 +21°C° 0 mm 1 mps 732 mmHg 74%
    02:00 +18°C° 0 mm 0 mps 732 mmHg 81%
    03:00 +20°C° 0 mm 1 mps 732 mmHg 81%
    04:00 +20°C° 0 mm 1 mps 732 mmHg 81%
    05:00 +20°C° 0 mm 1 mps 733 mmHg 82%
    06:00 +22°C° 0 mm 1 mps 733 mmHg 73%
    07:00 +24°C° 0 mm 2 mps 733 mmHg 64%
    08:00 +26°C° 0 mm 2 mps 734 mmHg 54%
    09:00 +26°C° 0 mm 3 mps 734 mmHg 53%
    10:00 +27°C° 0 mm 3 mps 734 mmHg 51%
    11:00 +28°C° 0 mm 4 mps 734 mmHg 49%
    12:00 +28°C° 0 mm 4 mps 734 mmHg 49%
    13:00 +28°C° 0 mm 4 mps 734 mmHg 49%
    14:00 +28°C° 0 mm 4 mps 733 mmHg 50%
    15:00 +28°C° 0 mm 3 mps 733 mmHg 49%
    16:00 +27°C° 0 mm 3 mps 733 mmHg 49%
    17:00 +27°C° 0 mm 2 mps 733 mmHg 49%
    18:00 +25°C° 0 mm 2 mps 733 mmHg 57%
    19:00 +24°C° 0 mm 2 mps 733 mmHg 66%
    20:00 +22°C° 0 mm 1 mps 733 mmHg 74%
    21:00 +21°C° 0 mm 1 mps 733 mmHg 77%
    22:00 +21°C° 0 mm 1 mps 733 mmHg 81%
    23:00 +20°C° 0 mm 1 mps 734 mmHg 84%

    10 June, Wednesday

    Time Temperature Precipitation Wind Pressure Humidity
    00:00 +20°C° 0 mm 1 mps 733 mmHg 83%
    01:00 +20°C° 0 mm 1 mps 733 mmHg 83%
    02:00 +17°C° 0 mm 0 mps 733 mmHg 82%
    03:00 +19°C° 0 mm 1 mps 733 mmHg 81%
    04:00 +19°C° 0 mm 1 mps 733 mmHg 80%
    05:00 +19°C° 0 mm 1 mps 733 mmHg 80%
    06:00 +20°C° 0 mm 2 mps 734 mmHg 72%
    07:00 +23°C° 0 mm 2 mps 734 mmHg 63%
    08:00 +25°C° 0 mm 3 mps 734 mmHg 55%
    09:00 +26°C° 0 mm 3 mps 734 mmHg 54%
    10:00 +27°C° 0 mm 4 mps 734 mmHg 53%
    11:00 +28°C° 0 mm 4 mps 734 mmHg 53%
    12:00 +28°C° 0 mm 4 mps 734 mmHg 52%
    13:00 +28°C° 0 mm 4 mps 734 mmHg 52%
    14:00 +28°C° 0 mm 4 mps 734 mmHg 51%
    15:00 +27°C° 0 mm 4 mps 733 mmHg 54%
    16:00 +27°C° 0 mm 3 mps 733 mmHg 57%
    17:00 +26°C° 0 mm 3 mps 733 mmHg 59%
    18:00 +24°C° 0 mm 2 mps 733 mmHg 67%
    19:00 +23°C° 0 mm 2 mps 733 mmHg 75%
    20:00 +22°C° 0 mm 1 mps 733 mmHg 83%
    21:00 +21°C° 0 mm 1 mps 733 mmHg 81%
    22:00 +21°C° 0 mm 1 mps 733 mmHg 78%
    23:00 +21°C° 0 mm 1 mps 733 mmHg 75%

    11 June, Thursday

    Time Temperature Precipitation Wind Pressure Humidity
    00:00 +20°C° 0 mm 1 mps 733 mmHg 74%
    01:00 +20°C° 0 mm 1 mps 732 mmHg 73%
    02:00 +19°C° 0 mm 2 mps 732 mmHg 72%
    03:00 +20°C° 0 mm 1 mps 732 mmHg 76%
    04:00 +20°C° 0 mm 1 mps 732 mmHg 80%
    05:00 +20°C° 0 mm 1 mps 732 mmHg 85%
    06:00 +21°C° 0 mm 2 mps 732 mmHg 76%
    07:00 +23°C° 0 mm 2 mps 732 mmHg 68%
    08:00 +25°C° 0 mm 3 mps 733 mmHg 59%
    09:00 +26°C° 0 mm 4 mps 733 mmHg 55%
    10:00 +28°C° 0 mm 4 mps 733 mmHg 51%
    11:00 +29°C° 0 mm 5 mps 733 mmHg 47%
    12:00 +28°C° 0 mm 5 mps 732 mmHg 49%
    13:00 +28°C° 0 mm 5 mps 732 mmHg 50%
    14:00 +28°C° 0 mm 6 mps 732 mmHg 52%
    15:00 +27°C° 0 mm 5 mps 731 mmHg 55%
    16:00 +26°C° 0 mm 4 mps 731 mmHg 57%
    17:00 +26°C° 0 mm 3 mps 731 mmHg 60%
    18:00 +24°C° 0 mm 3 mps 731 mmHg 70%
    19:00 +23°C° 0 mm 2 mps 731 mmHg 79%
    20:00 +21°C° 0 mm 2 mps 732 mmHg 88%
    21:00 +20°C° 0 mm 2 mps 732 mmHg 88%
    22:00 +20°C° 0 mm 2 mps 732 mmHg 88%
    23:00 +20°C° 0 mm 2 mps 732 mmHg 89%

    12 June, Friday

    Time Temperature Precipitation Wind Pressure Humidity
    00:00 +19°C° 0 mm 2 mps 732 mmHg 88%
    01:00 +19°C° 0 mm 2 mps 731 mmHg 87%
    02:00 +19°C° 0 mm 2 mps 731 mmHg 86%
    03:00 +19°C° 0 mm 2 mps 731 mmHg 83%
    04:00 +19°C° 0 mm 2 mps 731 mmHg 80%
    05:00 +19°C° 0 mm 2 mps 731 mmHg 76%
    06:00 +21°C° 0 mm 2 mps 731 mmHg 68%
    07:00 +24°C° 0 mm 3 mps 731 mmHg 60%
    08:00 +26°C° 0 mm 3 mps 732 mmHg 52%
    09:00 +27°C° 0 mm 4 mps 732 mmHg 48%
    10:00 +29°C° 0 mm 5 mps 732 mmHg 44%
    11:00 +30°C° 0 mm 6 mps 732 mmHg 40%
    12:00 +30°C° 0 mm 6 mps 732 mmHg 40%
    13:00 +30°C° 0 mm 5 mps 732 mmHg 39%
    14:00 +30°C° 0 mm 5 mps 732 mmHg 39%
    15:00 +29°C° 0 mm 4 mps 731 mmHg 40%
    16:00 +29°C° 0 mm 3 mps 731 mmHg 42%
    17:00 +28°C° 0 mm 2 mps 731 mmHg 43%
    18:00 +27°C° 0 mm 2 mps 731 mmHg 49%
    19:00 +25°C° 0 mm 1 mps 731 mmHg 54%
    20:00 +24°C° 0 mm 1 mps 731 mmHg 60%
    21:00 +24°C° 0 mm 1 mps 731 mmHg 57%
    22:00 +24°C° 0 mm 1 mps 731 mmHg 54%
    23:00 +24°C° 0 mm 1 mps 731 mmHg 51%
    Show more